Retour au catalogue

KUIPER-00513

ActifCommunicationsLEO
NORAD 69598·PAYLOAD·🇺🇸 United States

Lancé Jun 17, 2026 depuis Guiana Space Centre

Loading…

Prochains Passages (prochaines 24 heures)

TLE

FraisSource: CelesTrak SupGP

Époque: Sep 14, 2026, 22:26 UTC

1 69598C 26140G   26257.93478009 -.00005703  00000+0 -74660-3 0  2571
2 69598  51.9005 338.8054 0000444 106.4773 280.9418 14.79934710    18

Suivez KUIPER-00513 en temps réel avec AllMySat

Download on the App Store